OBJECT J

基本信息
目录编号:
63218
目录名称:
OBJECT J
国际标识:
2025-052J
轨道中心:
EARTH
物体状态:
在轨
发射日期:
2025-03-15 UTC
国别:
(TBD)
轨道信息
数据来源: 国际轨道数据
星历时间: 2026-09-05T11:35:55+0800
半长轴: 6834.849km
偏心率: 0.0002489
轨道倾角: 97.376°
近地点辐角: 147.432°
升交点赤经: 144.241°
平近点角: 212.708°
近地点: 455.01km
远地点: 458.414km
周期: 93.724分钟
每日圈数: 15.364181
详细信息
发射场:
AFWTR
轨道高度:
LEO
数据来源:
AOE Integration Group
参考系:
TEME
时间系统:
UTC
历元类型:
SGP4
2D轨道图
3D轨道图
轨道高度分析图
轨道倾角分析图
轨道综合分析图
查看轨道综合分析图